Flag for Spain Weather past 2 weeks in Córdoba, Spain

Now
68 °F

Sunny.


Feels Like: 68 °F
Forecast: 65 / 88 °F
Wind: 1 mph from North

Location: Cordoba / Aeropuerto

Current Time: Oct 1, 2014 at 11:19:02 AM

Latest Report: Oct 1, 2014 at 10:00 AM


Visibility: 10 mi

Pressure: 30.15 "Hg

Humidity: 78%

Dew point: 61 °F

Location of CórdobaLocation

Historic Weather in Córdoba — Graph

°F

Córdoba temperature yesterday

Maximum temperature yesterday: 82 °F (at 5:00 PM)
Minimum temperature yesterday: 61 °F (at 7:00 AM)
Average temperature yesterday: 71 °F

Past Weeks' High & Low Weather Summary

 TemperatureHumidityPressure
High82 °F (Sep 20, 3:00 PM)100% (Sep 17, 7:00 AM)30.18 "Hg (Sep 17, 7:00 AM)
Low61 °F (Sep 23, 4:00 AM)37% (Sep 26, 4:00 PM)29.77 "Hg (Sep 16, 3:00 PM)
Average70 °F74%30.02 "Hg
* Reported Sep 16 10:00 AM — Oct 1 10:00 AM, Córdoba, Weather by CustomWeather, © 2014

Note: Actual official high and low records may vary slightly from our data, if they occured in-between our weather recording intervals... More about our weather records

Advertising

Córdoba weather history for previous 24 hours

 ConditionsComfort  
Time TempWeatherWind HumidityBarometerVisibility
10:00 AM
Oct 1
68 °FSunny.1 mph78%30.15 "Hg10 mi
9:00 AM66 °FClear.No wind83%30.12 "Hg10 mi
8:00 AM66 °FClear.No wind78%30.12 "Hg10 mi
7:00 AM68 °FClear.3 mph73%30.12 "Hg10 mi
6:00 AM66 °FClear.7 mph78%30.09 "Hg10 mi
5:00 AM66 °FClear.5 mph78%30.09 "Hg10 mi
4:00 AM66 °FClear.3 mph83%30.09 "Hg10 mi
3:00 AM66 °FClear.No wind88%30.09 "Hg10 mi
1:00 AM70 °FClear.No wind78%30.12 "Hg10 mi
12:00 AM70 °FClear.No wind83%30.12 "Hg10 mi
11:00 PM
Sep 30
72 °FClear.1 mph78%30.09 "Hg10 mi
10:00 PM73 °FClear.No wind69%30.09 "Hg10 mi
9:00 PM73 °FSunny.No wind61%30.09 "Hg10 mi
8:00 PM77 °FSunny.No wind65%30.09 "Hg10 mi
7:00 PM82 °FSunny.No wind40%30.07 "Hg10 mi
6:00 PM82 °FPassing clouds.3 mph37%30.07 "HgN/A
5:00 PM82 °FPassing clouds.6 mph42%30.09 "HgN/A
4:00 PM81 °FPassing clouds.7 mph45%30.09 "HgN/A
3:00 PM81 °FPassing clouds.3 mph51%30.12 "HgN/A
2:00 PM79 °FPassing clouds.8 mph51%30.15 "HgN/A
1:00 PM77 °FPassing clouds.7 mph51%30.18 "HgN/A
12:00 PM73 °FPassing clouds.9 mph61%30.18 "HgN/A
11:00 AM72 °FPassing clouds.9 mph65%30.18 "HgN/A
Weather by CustomWeather, © 2014

See weather overviewHow to use our weather pages